Temp
3 3 3 3 4 4 5 5 6 6 6 6 5 4 4 4 3 3 3 4 4 4 6 9 10 9 10 10 9 7 7 6 6 8 10 11 11 13 13 14 12 12 12 11 13 12 13 17 18 17 17 17 18 18
3 3 4 4 5 5 5 5 5 5 6 5 5 4 4 4 3 3 3 3 4 4 5 7 8 9 10 10 9 7 9 9 10 10 11 12 11 12 13 13 15 13 15 15 15 16 17 16 16 16 15 15 15 15
3 4 4 5 5 5 5 5 5 5 5 5 5 4 4 4 4 3 3 3 3 4 4 5 5 7 8 8 9 7 8 10 11 13 11 12 11 13 12 13 15 15 16 14 14 17 17 16 16 14 14 13 14 14
4 4 4 4 4 4 4 5 5 5 5 5 6 4 4 4 3 3 3 3 4 4 5 6 6 6 7 8 8 8 10 10 11 10 10 11 11 13 13 14 14 15 15 15 15 16 16 17 14 12 12 13 12 12
4 4 4 4 4 4 4 4 5 5 5 5 5 4 4 4 4 3 3 4 4 7 6 7 6 7 6 7 8 8 8 8 8 8 8 10 12 12 12 12 14 16 15 14 14 12 11 13 13 10 11 11 11 10
4 5 4 4 4 4 4 4 4 5 5 5 4 4 4 3 4 3 2 3 4 6 5 6 8 8 7 8 8 8 7 7 7 7 8 11 11 11 11 13 12 11 10 10 10 9 10 11 11 9 9 9 8 8
5 5 4 4 4 5 5 4 4 5 5 4 4 3 3 2 3 4 5 3 4 5 6 6 7 8 8 8 8 8 7 7 7 6 8 10 11 11 10 11 6 6 6 7 5 6 9 7 6 6 7 7 6 5
4 5 4 4 4 5 5 5 4 4 4 4 3 3 3 3 4 5 3 4 5 5 7 7 7 8 8 8 8 8 7 7 7 7 7 10 11 11 9 4 4 4 5 5 4 5 5 5 4 3 3 2 3 2
5 5 5 4 4 5 5 5 5 4 4 3 3 3 3 3 4 4 3 4 6 6 6 5 7 7 8 7 6 5 6 6 6 6 7 8 8 7 2 2 2 2 2 2 3 5 4 3 3 2 1 0 0 -1
4 4 5 4 3 4 4 4 4 3 3 3 3 3 3 4 3 4 4 4 5 5 6 7 7 6 7 6 6 6 5 7 7 7 6 7 3 1 0 1 1 0 0 1 1 3 2 2 2 1 0 -1 -1 -2
4 4 5 4 4 3 3 3 3 3 4 4 4 4 4 4 5 5 5 6 5 5 6 6 7 6 4 7 6 5 7 6 8 6 8 6 4 1 0 -0 -0 -0 -0 -0 -0 0 -0 -1 -0 -1 -2 -2 -3 -5
4 4 5 5 4 4 4 5 5 5 4 5 4 3 2 3 5 6 6 5 6 6 5 5 5 5 4 5 8 6 7 7 7 5 6 4 1 0 0 -0 -1 -1 -1 -1 -2 -2 -2 -3 -3 -3 -3 -5 -6 -7
3 3 5 5 5 5 5 5 5 5 5 5 5 3 5 2 3 5 5 5 5 3 3 4 5 5 5 6 6 7 7 5 5 4 3 0 -1 -1 -1 -1 -2 -2 -3 -3 -3 -4 -4 -5 -5 -5 -6 -7 -7 -8
3 3 5 4 6 6 6 6 7 7 4 3 3 1 2 1 1 1 2 2 1 1 2 3 5 5 5 4 3 5 3 4 4 4 1 -1 -2 -3 -3 -3 -3 -4 -5 -5 -5 -6 -6 -7 -7 -8 -8 -9 -9 -9
3 3 4 4 4 4 6 6 6 4 1 0 1 -0 -0 -1 -1 -1 -1 0 -1 -1 2 5 5 5 3 3 3 3 3 2 2 1 -1 -2 -3 -3 -3 -4 -4 -5 -6 -6 -7 -7 -7 -8 -8 -9 -9 -10 -10 -10
3 3 2 3 4 4 5 6 2 0 -0 -1 -2 -0 -1 -0 -1 -1 -2 -0 -1 -1 3 4 4 3 2 1 1 0 2 1 -1 -2 -3 -3 -4 -5 -5 -5 -5 -6 -6 -7 -7 -7 -8 -8 -9 -9 -10 -10 -11 -11
3 3 2 2 2 2 3 1 -0 -1 -2 -2 -3 -3 -3 -2 -3 -3 -3 -3 -2 1 2 3 2 1 1 1 -1 -1 -1 -2 -3 -4 -5 -6 -6 -6 -6 -7 -7 -7 -7 -7 -8 -8 -8 -9 -9 -9 -10 -11 -11 -12
3 2 3 3 3 2 -1 -0 -0 -1 -3 -3 -3 -4 -3 -4 -3 -3 -3 -2 0 1 1 -0 0 -0 -1 -1 -2 -4 -5 -6 -6 -6 -6 -6 -7 -7 -7 -7 -8 -8 -8 -9 -9 -9 -9 -9 -9 -10 -10 -11 -11 -12
2 3 4 4 4 2 1 -0 -0 -2 -3 -3 -3 -3 -3 -3 -3 -3 -2 -2 -2 -1 -1 -2 -2 -2 -3 -3 -3 -4 -4 -4 -5 -6 -7 -8 -8 -8 -8 -8 -9 -9 -9 -9 -9 -10 -11 -11 -10 -10 -10 -10 -10 -11
2 3 3 3 3 2 1 -0 -0 -1 -2 -2 -2 -2 -2 -3 -3 -3 -3 -2 -2 -3 -4 -5 -5 -5 -4 -5 -4 -4 -5 -5 -5 -5 -6 -7 -8 -8 -8 -8 -8 -9 -9 -10 -10 -10 -10 -11 -12 -12 -12 -11 -12 -13
3 3 4 3 2 2 1 1 -0 -0 -1 -1 -1 -1 -2 -2 -3 -4 -4 -3 -4 -5 -5 -6 -6 -6 -7 -7 -6 -5 -6 -5 -4 -4 -5 -7 -8 -8 -8 -9 -9 -9 -9 -9 -10 -11 -11 -12 -12 -13 -13 -14 -14 -15
3 4 4 3 3 2 1 1 1 1 1 -0 -1 -1 -2 -3 -3 -4 -4 -4 -5 -6 -6 -6 -6 -6 -7 -7 -8 -8 -9 -8 -8 -9 -9 -9 -7 -8 -9 -10 -10 -10 -11 -11 -11 -12 -13 -14 -14 -14 -15 -15 -15 -15
3 3 2 2 1 1 -0 -0 1 1 -0 -0 -0 -2 -3 -3 -3 -3 -4 -5 -6 -7 -7 -7 -8 -8 -8 -9 -9 -9 -9 -8 -8 -9 -10 -10 -11 -11 -11 -11 -11 -11 -11 -12 -13 -13 -15 -16 -16 -15 -16 -15 -15 -16
2 -2 -1 1 2 -1 -0 -0 1 0 0 -0 -1 -3 -3 -3 -4 -4 -5 -6 -6 -7 -6 -7 -7 -7 -8 -8 -8 -9 -10 -9 -10 -10 -11 -10 -10 -12 -12 -12 -13 -13 -13 -13 -14 -14 -15 -16 -16 -16 -16 -16 -16 -16
1 -3 -1 -2 -1 -1 -1 -1 -2 -1 -2 -2 -3 -3 -4 -4 -4 -5 -5 -6 -6 -6 -7 -7 -7 -7 -7 -8 -9 -10 -11 -10 -9 -10 -12 -12 -12 -12 -12 -13 -14 -15 -15 -14 -14 -15 -16 -16 -16 -16 -16 -16 -16 -17
-3 -5 -2 -2 -2 -0 -1 -2 -2 -2 -3 -4 -5 -6 -5 -4 -4 -5 -5 -6 -6 -7 -8 -7 -7 -7 -8 -8 -9 -10 -11 -12 -11 -11 -13 -13 -13 -12 -12 -12 -12 -14 -16 -15 -15 -15 -16 -17 -16 -17 -17 -17 -18 -17
-4 -4 -5 -5 -3 -3 -3 -3 -3 -2 -3 -4 -4 -6 -4 -5 -6 -7 -7 -8 -7 -9 -9 -9 -8 -8 -9 -11 -12 -13 -14 -14 -13 -13 -15 -15 -15 -15 -14 -13 -14 -15 -17 -17 -16 -16 -16 -16 -17 -17 -17 -17 -18 -18
-6 -6 -5 -8 -8 -7 -7 -6 -6 -6 -5 -6 -5 -7 -6 -6 -7 -7 -8 -10 -10 -11 -11 -12 -11 -11 -12 -13 -14 -14 -15 -16 -15 -16 -16 -16 -17 -17 -17 -17 -17 -17 -18 -18 -18 -18 -17 -17 -17 -17 -17 -17 -18 -19
-7 -8 -8 -12 -9 -9 -10 -9 -8 -8 -9 -7 -7 -8 -9 -10 -11 -10 -11 -11 -12 -11 -12 -13 -14 -14 -15 -15 -15 -15 -15 -14 -13 -13 -13 -12 -13 -16 -18 -18 -18 -18 -18 -18 -18 -18 -18 -18 -18 -18 -18 -18 -19 -20
-8 -8 -9 -11 -11 -10 -10 -11 -10 -12 -10 -10 -9 -10 -10 -11 -13 -12 -12 -12 -11 -11 -12 -13 -14 -13 -13 -13 -14 -15 -16 -16 -16 -15 -13 -13 -14 -17 -18 -18 -18 -18 -18 -18 -18 -18 -18 -19 -19 -19 -19 -19 -19 -19
-8 -8 -9 -9 -10 -10 -11 -12 -12 -11 -11 -10 -9 -9 -10 -10 -12 -14 -14 -14 -14 -14 -14 -14 -14 -14 -14 -14 -13 -13 -14 -16 -16 -16 -16 -17 -18 -18 -19 -18 -18 -19 -19 -19 -19 -19 -19 -19 -19 -19 -19 -19 -19 -20
-9 -9 -9 -9 -9 -10 -11 -10 -9 -9 -9 -8 -10 -10 -11 -9 -10 -12 -16 -15 -13 -12 -13 -13 -12 -13 -14 -14 -15 -15 -15 -16 -16 -17 -17 -18 -19 -18 -18 -18 -19 -19 -20 -20 -20 -20 -20 -20 -19 -19 -19 -20 -20 -21
-8 -8 -8 -8 -9 -9 -10 -8 -8 -8 -8 -8 -10 -12 -12 -10 -10 -12 -15 -14 -14 -13 -13 -14 -14 -14 -14 -15 -15 -16 -16 -17 -17 -17 -18 -18 -18 -19 -19 -19 -19 -19 -20 -20 -20 -21 -21 -21 -20 -20 -20 -21 -22 -22
Height
673 667 661 656 652 649 648 646 647 648 649 651 654 659 667 676 685 695 704 712 719 725 721 716 716 716 714 720 724 736 745 745 747 743 731 723 718 711 709 703 713 714 719 723 721 720 715 692 690 696 697 695 695 693
663 656 650 646 643 640 638 637 636 636 637 640 643 649 655 666 675 687 697 705 715 722 718 715 713 713 714 717 725 730 723 727 725 725 719 714 716 715 707 704 699 706 698 699 698 696 692 698 697 700 704 704 702 699
654 648 642 638 633 630 628 626 626 626 627 630 634 639 646 658 667 678 687 698 712 716 719 715 711 712 714 717 721 726 725 719 719 715 716 712 714 705 708 702 695 696 696 701 701 690 688 695 698 705 708 707 704 703
648 642 636 630 624 620 616 614 615 616 618 621 625 629 640 652 661 672 680 689 701 706 706 704 707 709 712 713 716 718 717 718 719 721 718 714 712 705 700 695 696 693 696 695 693 691 694 692 705 708 709 706 706 705
644 638 630 623 616 610 605 603 603 606 610 615 620 628 639 649 657 670 680 685 693 695 694 699 703 703 707 711 713 716 718 719 720 722 723 715 706 708 703 703 697 692 693 695 694 705 710 706 709 716 711 708 709 708
642 635 627 618 607 598 593 593 594 599 605 611 618 628 639 648 654 668 678 684 688 693 699 697 695 697 702 707 710 711 715 719 721 720 718 709 709 709 704 695 701 708 714 717 713 718 716 713 713 716 717 716 714 713
640 633 625 614 601 587 578 583 590 596 603 608 617 631 641 651 658 664 666 672 685 694 697 695 695 694 698 704 707 709 712 714 718 720 716 706 706 709 708 701 725 729 729 727 731 727 718 722 725 723 722 721 720 719
639 633 626 615 604 593 587 589 593 598 604 614 625 636 646 654 661 664 669 675 684 691 692 691 690 691 696 697 701 705 706 710 711 713 715 705 703 704 707 732 734 736 734 732 734 734 733 731 728 728 728 727 724 725
640 635 628 621 612 603 599 598 600 605 614 624 635 645 652 657 662 667 675 681 685 691 690 694 683 686 691 695 703 708 708 708 712 710 709 708 707 716 742 743 742 743 742 741 738 731 732 733 732 732 730 730 730 730
642 638 632 627 619 613 610 608 607 617 626 635 645 650 658 661 667 674 684 688 689 690 689 683 685 688 690 696 700 703 709 703 699 704 708 705 733 749 750 749 749 749 748 746 741 735 737 733 734 734 734 733 733 735
643 641 636 634 631 627 626 627 629 632 637 641 646 652 663 669 671 676 680 681 687 688 687 685 684 688 697 690 693 704 695 699 690 701 695 709 726 748 752 753 753 752 750 748 747 744 743 742 740 738 739 739 738 739
645 643 641 639 637 637 638 638 639 639 641 643 649 661 668 674 671 670 674 681 678 680 689 687 691 693 697 694 685 697 692 694 693 709 702 718 746 751 752 753 754 753 753 751 749 747 746 745 745 744 744 745 743 744
648 646 645 643 642 642 642 642 643 646 648 651 658 669 667 682 680 672 676 680 683 695 695 691 689 691 691 691 693 692 693 705 712 714 727 745 753 755 756 756 757 758 756 754 753 752 751 750 749 749 749 750 750 750
651 649 648 647 647 647 647 648 649 649 651 662 669 683 685 692 695 699 694 695 701 701 698 692 688 691 695 698 706 700 719 713 713 716 736 753 761 762 763 762 761 762 762 761 759 759 758 757 756 756 756 757 757 758
654 653 652 650 653 651 650 650 651 650 665 678 683 696 702 711 710 710 710 705 707 707 699 689 692 693 703 708 713 712 715 724 729 735 751 762 766 766 766 765 766 766 766 766 766 765 765 764 763 763 764 765 765 766
656 656 656 655 653 653 654 654 655 664 683 695 706 704 711 706 710 713 713 709 711 708 699 695 697 703 716 721 722 732 723 731 750 758 764 767 770 771 771 772 772 771 772 772 772 772 771 771 771 772 772 772 773 774
657 658 659 658 656 657 658 661 671 687 700 709 719 723 723 721 722 722 722 718 716 706 702 703 707 722 724 728 741 748 748 757 764 771 774 776 777 777 778 778 778 778 777 777 777 777 778 779 779 779 779 781 782 783
658 658 658 659 659 659 665 674 687 701 716 721 722 728 728 729 727 726 725 721 714 712 715 723 727 732 736 738 749 764 770 775 777 779 780 782 782 783 782 782 783 783 783 783 784 784 784 784 784 786 787 789 789 789
658 657 658 659 660 663 675 688 694 710 723 726 729 729 729 730 732 731 728 726 725 724 728 735 743 748 756 760 763 769 772 774 778 782 785 786 786 786 787 787 787 787 788 788 788 789 790 791 791 791 792 792 792 794
658 659 660 661 662 669 684 697 701 709 720 727 728 729 730 733 735 736 735 733 732 734 746 756 764 770 768 772 772 774 777 780 780 781 785 788 789 790 790 790 790 791 792 793 793 793 794 795 796 796 796 797 797 799
660 661 662 661 667 676 689 698 706 714 721 725 730 729 734 737 739 740 741 742 744 755 766 774 776 779 780 780 780 780 782 782 782 782 785 789 793 792 793 794 794 795 795 796 797 798 798 799 801 801 801 802 803 803
659 660 662 664 673 685 695 702 706 714 718 725 728 731 736 739 742 747 750 751 766 776 777 778 781 782 784 786 787 788 789 789 790 792 793 794 794 796 797 798 798 799 800 800 801 802 803 804 804 805 805 806 807 807
660 661 665 670 680 690 708 708 707 712 718 724 728 734 740 744 749 751 758 771 780 785 785 786 787 788 789 791 792 793 793 793 794 796 798 799 800 801 802 802 802 802 803 804 805 806 807 807 808 808 809 809 810 811
662 670 677 680 685 702 707 708 709 715 720 725 731 740 746 748 754 756 768 777 784 786 787 789 790 791 793 794 794 796 797 798 799 800 801 801 802 804 805 805 806 806 806 807 807 808 809 810 810 811 811 812 812 813
670 693 688 693 695 699 705 711 717 719 726 732 737 744 750 751 755 763 771 779 783 786 789 791 792 792 793 796 798 800 801 801 801 802 804 805 805 806 807 808 808 809 809 809 809 810 811 811 812 812 813 813 814 814
689 702 696 696 699 695 705 711 717 722 727 737 746 753 754 752 756 767 771 779 783 788 791 792 793 795 797 798 800 802 804 804 804 804 807 807 807 807 807 808 808 810 810 811 811 811 812 813 813 814 814 815 815 815
695 703 706 711 706 707 713 720 721 721 728 735 743 751 749 754 765 776 782 785 785 790 792 794 795 796 798 802 804 805 806 806 806 807 808 808 808 808 809 809 809 811 811 812 812 813 813 814 814 815 815 815 815 815
706 709 706 721 720 721 724 728 731 737 740 746 745 756 754 759 769 777 783 788 790 792 794 796 798 800 802 804 806 807 808 808 808 809 810 810 810 810 810 810 810 811 811 812 813 813 814 814 814 814 814 814 815 814
713 718 719 735 731 737 745 745 745 750 755 751 752 760 769 777 784 784 788 790 792 794 796 798 801 802 804 805 807 809 810 810 810 810 809 808 810 812 811 812 812 812 813 814 813 814 814 814 814 814 813 813 813 812
721 722 729 741 746 750 756 758 757 762 761 760 762 770 776 784 789 790 791 793 794 796 798 799 801 803 805 806 808 810 810 810 810 811 809 809 810 811 812 812 813 813 813 814 814 814 813 813 812 812 812 812 811 811
723 726 733 743 754 761 763 765 764 764 765 767 769 772 778 786 793 794 795 795 796 798 800 802 803 804 805 807 808 809 809 810 809 809 809 810 811 812 812 812 812 812 813 813 813 813 813 812 812 811 811 810 809 808
728 731 736 747 759 764 766 763 763 766 769 770 776 780 784 783 788 795 797 798 799 800 802 803 804 805 806 806 807 808 808 809 810 810 811 811 812 812 812 812 812 812 812 812 812 811 811 811 810 810 809 808 807 805
733 733 735 744 754 756 761 759 760 768 772 774 780 785 786 783 787 795 797 798 800 801 803 804 804 805 806 807 807 808 809 810 811 811 812 812 812 812 812 812 812 811 811 811 811 810 810 809 809 808 807 805 804 802
Wind_Speed
40 38 38 40 33 28 27 24 26 27 28 29 31 39 40 44 47 50 33 34 27 5 10 16 16 14 14 14 9 6 4 4 4 7 5 4 5 6 5 3 8 10 9 7 9 7 9 3 3 3 9 10 11 13
38 38 33 27 26 24 24 24 26 27 26 26 27 30 40 40 43 50 20 30 36 7 4 16 19 22 23 22 9 11 7 7 7 7 6 4 4 2 7 4 5 5 6 4 6 6 4 2 6 7 8 8 9 14
37 25 25 25 25 25 25 23 22 22 22 26 26 29 40 39 39 49 20 35 26 8 4 7 5 14 17 22 23 6 6 6 6 4 3 4 4 6 6 8 7 5 6 5 3 6 6 4 4 8 9 10 10 11
24 22 23 23 23 22 24 25 24 23 20 20 21 36 39 37 37 45 24 36 25 3 4 4 14 8 10 21 23 27 8 11 5 3 4 4 5 4 6 4 6 3 4 5 10 11 9 6 8 12 13 11 12 12
16 22 24 26 26 25 23 20 21 19 19 18 22 33 36 32 33 38 26 31 35 5 3 4 7 13 22 18 25 25 9 8 4 4 2 5 3 3 3 2 7 6 7 7 8 6 4 6 11 9 13 14 13 12
16 22 28 30 30 23 18 15 15 17 19 23 28 36 33 29 34 31 3 22 31 16 2 3 1 11 19 22 15 11 10 4 2 2 2 3 3 2 3 5 5 6 7 8 5 10 10 12 10 9 11 13 12 10
15 26 26 34 29 25 9 11 13 17 20 21 39 36 34 36 30 5 3 21 27 18 3 2 3 3 16 13 7 7 7 3 4 2 3 4 4 5 3 5 8 7 7 8 10 11 6 9 8 10 11 12 10 9
16 25 21 32 29 21 19 17 16 20 33 39 42 41 42 26 17 7 26 40 24 6 2 3 3 5 12 6 5 4 3 4 3 3 2 5 3 3 3 6 7 9 8 5 11 9 8 9 7 8 9 9 7 7
15 22 17 25 26 20 20 19 24 34 41 46 45 40 21 5 2 8 35 22 8 2 3 3 5 5 6 3 3 2 1 1 1 3 4 3 3 1 6 7 8 10 9 11 12 11 5 7 8 6 7 8 7 7
11 18 13 20 31 28 23 26 41 49 49 48 28 4 3 7 40 31 6 2 1 1 1 3 2 3 4 2 3 4 2 3 3 3 3 2 3 8 8 7 7 8 9 10 10 9 11 10 8 6 7 6 6 7
9 14 17 19 25 35 39 44 45 40 30 6 2 3 30 26 4 2 3 3 3 3 2 1 1 2 1 3 4 2 2 3 3 2 1 2 3 5 7 7 7 7 7 7 7 6 6 6 6 4 5 7 10 11
11 14 14 18 23 24 23 23 16 10 3 9 17 14 6 3 2 3 3 3 1 3 2 1 2 1 2 3 3 2 2 1 3 2 2 3 3 6 7 8 8 8 7 5 7 6 6 7 7 7 8 9 14 16
11 12 13 16 20 22 25 27 32 37 30 11 5 4 2 4 5 2 4 3 3 2 2 0 3 1 2 2 3 1 2 4 1 2 2 3 5 6 7 6 6 7 8 7 7 9 10 11 12 11 13 15 16 19
10 10 15 18 17 15 14 14 13 5 9 5 4 6 4 4 4 3 3 2 2 2 3 2 3 3 2 3 2 3 2 2 3 3 3 3 5 5 6 6 6 7 8 9 9 12 13 14 16 18 17 16 18 20
15 9 7 10 13 11 9 8 8 10 6 5 5 5 5 2 3 3 2 1 3 4 3 2 3 3 4 4 3 3 2 4 3 3 3 4 5 5 6 7 7 7 7 8 10 12 13 15 17 19 19 19 19 19
3 8 12 4 5 11 14 12 13 6 4 4 7 3 3 1 4 3 5 3 5 5 1 2 3 4 5 3 4 4 2 3 3 3 4 4 6 6 7 8 9 10 11 12 13 14 16 16 17 19 20 20 20 20
6 3 3 8 8 7 7 7 7 6 5 4 4 4 3 3 4 4 4 6 6 3 3 3 4 5 2 3 3 3 3 5 5 5 5 7 7 7 7 9 10 11 12 13 14 15 15 14 15 17 18 17 19 19
4 1 3 10 5 7 6 8 5 5 6 5 4 4 6 4 3 5 5 6 3 2 3 4 3 3 3 3 3 3 4 6 6 6 5 6 8 9 9 9 10 10 11 12 12 13 12 12 13 13 13 13 15 15
4 6 9 8 4 6 4 5 5 5 5 3 3 3 3 4 6 5 6 6 9 8 3 3 5 3 3 4 7 6 5 4 5 5 6 8 8 9 9 9 10 11 11 10 10 11 12 13 11 10 9 10 12 11
8 10 7 6 4 4 5 4 4 5 3 3 3 5 3 3 4 6 8 8 7 3 6 5 4 4 4 5 4 5 5 5 5 5 5 5 7 7 8 7 7 8 9 10 10 8 10 11 11 10 10 9 10 10
11 9 6 4 5 10 4 3 4 3 5 4 4 3 4 5 4 5 5 5 5 4 4 4 5 6 10 10 9 8 6 3 3 2 4 4 5 6 6 7 7 7 7 7 8 9 9 9 8 8 9 10 10 11
4 5 3 6 4 4 4 6 5 5 3 4 3 3 3 3 3 5 3 7 4 5 3 4 5 5 6 8 10 10 9 10 11 11 10 6 3 5 6 6 5 7 8 7 7 8 8 8 8 8 9 10 9 9
4 3 5 4 5 4 5 2 3 3 3 4 3 3 3 3 3 2 4 4 3 4 7 8 10 12 12 11 11 11 9 8 9 9 8 8 8 7 7 7 6 5 6 7 6 7 8 8 9 9 9 8 8 8
5 6 5 3 4 4 3 2 3 3 3 2 3 3 3 2 2 3 4 3 3 6 6 7 7 6 8 8 6 8 8 8 9 8 6 5 6 7 6 6 6 6 5 5 6 7 7 7 7 7 7 7 6 5
4 6 3 5 3 4 4 3 3 3 3 2 3 3 2 1 3 3 3 4 5 4 4 4 3 4 4 4 6 6 5 4 5 6 6 6 6 5 5 5 6 5 4 4 4 5 5 4 4 4 4 4 4 3
6 6 4 2 2 3 3 4 3 4 4 3 3 3 1 2 3 4 3 6 5 4 4 4 4 4 4 4 4 4 4 4 3 4 4 2 1 0 2 3 3 2 2 3 4 4 4 3 3 3 2 2 1 0
4 3 3 3 2 4 5 4 3 4 4 3 4 3 2 3 3 2 4 3 4 6 7 6 4 5 7 7 7 5 4 3 3 5 5 3 3 2 1 1 1 2 3 2 2 3 4 4 4 3 3 2 1 1
4 5 4 4 5 5 4 4 3 3 3 2 3 3 3 2 3 3 3 6 11 11 10 9 9 9 9 9 9 10 9 10 10 8 7 6 5 5 5 5 5 4 3 3 2 2 3 3 3 3 2 1 1 2
4 2 4 5 5 6 6 4 3 3 2 1 3 3 3 3 3 5 9 11 11 12 12 12 10 11 10 8 6 7 7 3 1 1 1 1 2 2 2 3 3 3 3 2 2 2 1 1 1 1 2 3 4 5
3 3 4 5 5 5 4 4 3 2 3 4 4 5 5 4 8 8 10 9 8 9 9 10 10 7 7 5 6 4 3 1 1 1 1 1 2 3 3 2 2 1 1 0 1 2 2 2 3 4 3 4 5 6
2 3 5 5 5 5 5 4 9 7 4 6 8 9 7 4 5 6 4 5 8 10 11 8 7 6 6 5 3 3 3 1 0 1 3 3 5 4 2 1 0 0 0 1 2 3 3 3 4 4 5 6 6 7
3 3 5 5 5 5 1 1 3 3 3 3 3 2 3 3 3 3 2 5 7 7 6 6 5 5 5 3 3 3 4 6 6 5 4 3 3 2 1 1 1 2 2 3 3 3 4 4 5 5 6 7 8 8
4 5 6 6 4 6 4 3 3 4 3 2 2 2 2 2 3 3 4 7 4 4 5 6 5 7 6 5 6 8 7 6 5 4 4 3 3 2 2 2 2 2 2 2 2 3 3 4 5 6 7 8 9 9
Wind_Direction
312 308 303 297 292 288 283 272 262 261 258 251 240 227 217 214 212 199 203 197 195 220 245 231 233 237 215 199 188 145 144 178 179 204 223 201 223 207 242 184 175 181 189 192 226 242 259 3 206 249 1 336 337 328
310 312 308 301 295 288 281 274 267 259 253 246 235 227 210 209 207 197 193 193 197 216 276 238 241 247 220 185 182 177 196 156 187 208 211 210 197 223 229 237 205 230 217 215 205 216 102 98 2 39 14 341 339 323
320 317 311 304 296 289 282 272 263 259 253 241 233 223 201 201 203 194 183 179 188 198 233 251 220 235 223 203 202 191 226 217 197 229 213 220 230 201 202 233 246 235 225 241 242 239 260 12 62 7 5 347 345 342
322 324 322 318 309 300 289 277 261 251 247 240 224 202 188 195 195 190 176 178 181 143 222 220 207 186 227 204 195 204 231 214 239 207 233 214 223 219 223 270 239 277 151 245 261 263 308 274 27 355 341 351 348 353
334 344 341 333 322 303 289 274 248 239 224 213 192 178 181 190 192 180 176 177 184 204 178 165 187 197 191 202 208 215 206 199 189 172 191 221 237 225 214 239 240 246 293 264 280 32 323 302 349 1 340 351 353 349
356 352 355 346 330 314 287 264 230 215 197 187 181 172 175 168 153 144 126 171 178 176 148 159 104 172 196 203 200 198 185 180 176 177 230 213 228 271 234 232 68 47 33 12 338 341 313 308 315 20 351 351 354 354
339 348 352 357 353 346 288 204 177 176 171 175 159 163 158 144 143 145 160 149 157 151 177 141 179 163 182 189 204 212 168 176 169 174 244 217 203 185 268 248 66 40 13 5 19 359 331 27 333 348 351 350 357 359
0 2 11 10 13 36 82 122 138 149 152 145 141 137 128 121 114 102 136 133 134 120 182 152 144 160 169 175 187 182 185 176 170 161 192 224 196 224 231 55 31 18 355 49 354 339 309 301 357 8 360 353 0 10
9 8 9 19 36 62 82 103 128 138 135 132 131 128 113 68 66 102 141 128 90 108 174 181 182 168 180 147 116 111 107 204 129 193 190 191 160 137 44 26 17 6 360 333 327 314 348 347 349 358 8 15 12 19
0 5 37 60 60 85 87 104 124 121 124 120 117 96 85 97 117 114 95 104 185 111 235 194 151 127 185 127 150 138 168 207 205 180 119 151 86 79 35 21 9 356 348 336 332 339 333 331 341 359 19 35 43 42
36 49 56 81 79 95 92 104 110 112 115 105 87 65 121 133 103 104 122 168 145 175 200 39 287 134 167 185 127 189 168 181 200 102 186 103 97 38 19 15 2 351 346 343 329 329 345 335 340 28 48 55 68 66
52 50 60 72 101 108 108 107 115 128 92 117 107 94 69 38 148 115 101 128 191 92 126 187 146 177 156 251 142 164 120 192 85 4 74 111 62 22 10 11 13 4 358 3 12 20 25 35 47 70 78 76 77 80
48 54 45 78 105 112 111 112 117 112 111 100 72 87 17 2 68 70 135 106 118 9 1 191 142 127 137 73 81 118 67 63 165 69 78 56 35 23 9 6 20 20 26 39 46 57 65 67 69 78 83 82 90 86
66 57 56 71 115 119 108 100 120 115 58 55 39 56 35 52 62 56 79 81 40 323 340 353 94 65 37 70 358 98 82 197 136 143 100 66 26 9 11 24 35 43 53 60 63 69 71 75 77 77 79 83 88 85
71 86 76 60 74 97 105 94 76 73 54 59 34 59 60 55 52 19 338 254 12 312 320 99 75 55 48 83 36 128 108 80 32 69 79 44 27 28 34 41 51 57 59 64 69 71 71 76 79 76 74 77 79 80
152 46 43 102 112 83 84 89 52 61 63 58 45 82 25 85 52 30 14 32 8 340 312 29 83 70 51 41 52 39 60 64 92 74 56 52 48 46 52 53 51 63 70 73 73 74 74 73 78 80 77 73 72 75
114 103 92 78 117 119 83 67 49 54 56 51 59 37 33 59 35 17 353 352 331 314 53 33 56 53 93 70 75 19 56 87 96 79 62 54 54 58 65 69 65 67 69 75 78 78 79 80 84 82 78 74 77 77
100 111 148 174 121 65 58 49 80 70 68 56 83 60 61 51 36 37 12 1 352 54 34 59 72 61 45 69 85 98 95 84 77 76 69 71 75 73 74 77 71 73 74 72 72 73 74 79 80 82 86 88 84 81
79 116 115 142 147 82 68 52 49 88 72 84 90 61 58 68 49 33 31 42 55 54 83 59 58 50 64 66 105 110 115 110 112 98 87 74 73 80 84 82 80 76 73 72 74 73 70 65 70 79 82 89 88 88
91 114 120 136 100 90 85 67 71 86 91 92 73 52 57 50 36 41 41 41 45 60 54 47 49 63 76 83 85 97 106 121 126 118 102 85 78 79 68 75 80 87 87 82 75 78 84 76 67 69 77 87 93 88
120 115 100 78 69 66 82 95 72 84 118 87 111 77 80 59 48 40 42 25 56 34 73 73 83 77 69 69 75 93 90 90 72 53 109 109 79 78 76 69 69 72 76 75 80 74 70 71 70 74 81 83 85 86
116 112 101 60 81 76 76 39 100 124 88 107 113 67 71 57 43 35 43 43 61 43 56 94 89 97 82 67 66 72 83 90 90 91 88 95 89 76 60 52 72 74 71 69 75 78 74 71 78 83 89 91 91 90
104 58 58 63 81 68 96 200 82 82 101 110 109 80 63 65 54 29 76 54 78 60 80 86 87 87 93 92 86 76 74 88 88 85 85 84 83 78 76 68 72 90 95 83 85 92 91 89 89 95 98 99 102 98
59 49 43 62 77 98 129 76 82 92 101 94 78 90 67 69 77 68 79 78 95 111 109 112 114 110 102 92 82 77 73 88 96 89 81 95 96 81 78 76 74 75 88 105 105 105 103 100 99 97 99 99 94 92
83 11 15 71 75 112 105 106 89 90 99 103 101 100 96 105 79 75 100 136 148 135 117 122 112 103 109 103 100 86 61 73 93 98 77 84 99 107 96 86 78 76 86 113 120 122 117 114 107 105 99 93 92 82
75 19 27 63 94 109 126 117 133 122 109 92 76 95 102 101 87 97 117 151 151 158 160 151 141 133 121 125 134 131 105 91 107 114 101 77 60 170 150 155 148 105 78 118 139 147 147 149 149 148 143 141 145 20
98 79 67 25 66 103 105 82 85 90 92 110 140 133 131 88 100 111 135 125 128 126 132 132 148 151 137 132 120 108 92 87 96 108 115 96 79 76 112 200 164 122 148 159 160 169 175 173 173 177 176 188 219 255
80 32 105 25 71 32 96 76 64 73 93 107 126 73 91 85 118 124 92 126 126 124 115 104 105 115 119 121 124 121 109 108 105 102 97 85 79 83 92 97 107 116 122 133 148 159 174 187 193 198 211 243 255 276
61 54 82 51 56 54 40 44 71 61 20 45 96 100 101 66 48 113 124 131 132 131 126 120 107 110 108 109 116 127 129 118 150 122 122 100 158 136 127 123 119 108 102 91 79 85 109 130 246 250 266 269 275 280
65 32 88 63 54 48 34 17 72 67 43 45 106 113 97 81 67 95 121 130 137 130 125 128 131 134 134 142 145 165 194 232 316 304 344 36 66 145 134 119 118 148 122 85 235 269 234 285 276 303 291 283 281 284
70 91 82 63 80 81 93 83 106 90 87 75 73 89 95 106 89 54 90 108 125 128 129 127 119 127 129 134 144 161 171 220 161 127 139 122 121 122 120 131 150 152 62 332 314 294 274 274 279 285 285 286 288 289
47 66 121 106 129 161 235 55 70 71 67 65 78 96 124 119 111 122 122 132 138 144 149 140 141 165 167 157 162 147 138 138 127 120 114 113 111 128 166 253 281 282 295 303 304 297 293 287 286 289 293 295 295 294
92 89 90 109 128 165 163 141 90 104 70 84 83 47 48 67 126 131 172 171 156 145 160 157 147 143 148 137 135 136 134 129 120 109 98 92 81 67 52 44 31 15 350 333 317 305 294 292 293 295 297 298 300 300